Regional Weather Roundup
Issued by NWS Wakefield, VA

Home | Current Version | Previous Version | Text Only | Print | Product List | Glossary Off
Versions: 1 2 3 4 5 6 7 8 9 10 11 12 13 14 15 16 17 18 19 20 21 22 23 24 25 26 27 28 29 30 31 32 33 34 35 36 37 38 39 40 41 42 43 44 45 46 47 48 49 50
000 ASUS41 KAKQ 312114 RWRAKQ REGIONAL WEATHER ROUNDUP NATIONAL WEATHER SERVICE WAKEFIELD VA 500 PM EDT TUE MAR 31 2015 Note: "fair" indicates few or no clouds below 12,000 feet with no significant weather and/or obstructions to visibility. * = Denotes station may not report precipitation (e.g., rain,snow,etc.), thunder or fog. VAZ042-051-052>054-056-312200- NORTHERN VIRGINIA CITY SKY/WX TMP DP RH WIND PRES REMARKS WASH NATIONAL LGT RAIN 70 33 25 W21G33 29.59R DULLES CLOUDY 63 36 36 NW12 29.57S FORT BELVOIR DRIZZLE 68 34 28 VRB3G18 29.56F QUANTICO LGT RAIN 72 27 18 W22G35 29.56F FREDERICKSBRG* MOSUNNY 74 30 20 SW24G31 29.56F STAFFORD* CLOUDY 70 21 15 SW18G25 29.59F WARRENTON CLOUDY 70 40 33 SW18G28 29.53F CULPEPER* PTSUNNY 70 30 23 SW12 29.54F MANASSAS* CLOUDY 70 28 21 SW9G18 N/A LEESBURG* CLOUDY 63 36 36 CALM 29.58R WINCHESTER CLOUDY 66 21 18 NW18G38 29.59R FRONT ROYAL* CLOUDY 64 34 32 NW14G30 29.58R LURAY* CLOUDY 70 32 24 W14G32 29.57R $$ VAZ048-049-060>072-079>083-312200- CENTRAL AND SOUTH CENTRAL VIRGINIA CITY SKY/WX TMP DP RH WIND PRES REMARKS RICHMOND MOSUNNY 73 31 21 SW25G39 29.62F CHESTERFIELD* NOT AVBL PETERSBURG* SUNNY 73 26 17 SW15G30 29.66F HANOVER SUNNY 72 29 20 SW21G35 29.62F TAPPAHANNOCK* SUNNY 73 16 11 SW18G30 29.61F QUINTON* FAIR 72 30 21 SW23G32 29.63F CHARLOTTSVILLE PTSUNNY 70 27 20 SW13G22 29.55F GORDONSVILLE* CLOUDY 70 30 22 SW12G25 29.54F ORANGE* CLOUDY 72 30 21 S17G26 29.56F LOUISA* MOSUNNY 73 30 20 SW13G28 29.56F BUMPASS* FAIR 73 29 19 SW16G29 29.58F FARMVILLE* SUNNY 75 27 16 SW21G32 29.61F CREWE* FAIR 73 25 16 MISG 29.64F FORT PICKETT* FAIR 73 28 18 SW22G36 29.66F CHASE CITY* FAIR 75 35 23 SW12G18 29.69F CLARKSVILLE* FAIR 72 32 23 SW14 29.70F SOUTH HILL* SUNNY 71 33 24 SW17G26 29.75F LAWRENCEVILLE* FAIR 72 33 23 SW20G25 29.69F EMPORIA* SUNNY 72 32 23 S14G21 29.71F $$ VAZ088>098-312200- SOUTHEAST VIRGINIA CITY SKY/WX TMP DP RH WIND PRES REMARKS NORFOLK SUNNY 70 31 23 SW28G37 29.68F VIRGINIA BEACH SUNNY 72 34 24 SW20G32 29.69F NORFOLK NAVAL MOSUNNY 73 34 23 SW21G29 29.70F WEST POINT* SUNNY 73 22 14 SW21G29 29.65F SALUDA* FAIR 69 32 25 S16G30 29.62F NEWPORT NEWS SUNNY 73 34 23 SW24G37 29.68 LANGLEY AFB SUNNY 69 35 28 S26G33 29.67F FORT EUSTIS SUNNY 69 37 31 SW14G28 29.65F WILLIAMSBURG* SUNNY 73 37 27 SW22G32 29.67F HR EXEC AP* FAIR 72 36 26 S22G30 29.70F FRANKLIN* SUNNY N/A N/A N/A SW16G26 29.71F WAKEFIELD SUNNY 71 31 22 SW13G26 29.68F $$ VAZ020-022-025-037-045-312200- WEST CENTRAL AND SOUTHWEST VIRGINIA CITY SKY/WX TMP DP RH WIND PRES REMARKS STAUNTON* CLOUDY 72 26 18 W22G33 29.59F WAYNESBORO* CLOUDY 69 29 22 W12G31 29.59F HOT SPRINGS VA CLOUDY 60 26 27 W24G38 29.65F LYNCHBURG MOSUNNY 73 28 18 SW14G31 29.65F DANVILLE SUNNY 75 34 22 W21G30 29.71F SOUTH BOSTON* FAIR 74 27 17 MISG 29.69F MARTINSVILLE SUNNY 76 29 18 W9G17 29.74F ROANOKE MOSUNNY 74 29 19 W20G32 29.67F BLACKSBURG MOSUNNY 68 32 26 W18G31 29.74F DUBLIN* SUNNY 70 33 25 W16G29 29.73F MARION* MOSUNNY 67 35 31 SW31G39 29.80F HILLSVILLE* SUNNY 66 33 30 W20G37 29.78F RICHLANDS* CLOUDY 65 33 29 W14G24 29.80F WISE* MOSUNNY 70 28 21 W21G33 29.84S ABINGDON* PTSUNNY 69 38 31 W17G29 29.82F $$ MDZ021>025-VAZ099-100-312200- SOUTHERN MARYLAND AND THE DELMARVA PENINSULA CITY SKY/WX TMP DP RH WIND PRES REMARKS PATUXENT RIVER MOSUNNY 70 31 23 S15G29 29.58F BAY BRIDGE APT LGT RAIN 59 34 38 NW9G16 29.63R LEONARDTOWN PTSUNNY 70 28 21 SW17G28 29.58F DOVER CLOUDY 63 34 33 SW14G25 29.60R GEORGETOWN PTSUNNY 65 31 28 SW17G31 29.62F EASTON PTSUNNY 66 37 34 SW13G23 29.64S CAMBRIDGE MOSUNNY 64 32 29 S14G21 29.59F SALISBURY MOSUNNY 65 33 30 S25G37 29.62F OCEAN CITY MOSUNNY 53 36 52 SW16G30 29.65F WALLOPS ISLAND SUNNY 55 36 48 SW24G35 29.64F ACCOMACK* SUNNY 59 34 38 S17G31 29.64F $$ NCZ012>017-030>032-312200- NORTH CENTRAL AND EASTERN NORTH CAROLINA CITY SKY/WX TMP DP RH WIND PRES REMARKS ROANOKE RAPIDS FAIR 70 36 28 SW25G31 29.72F RALEIGH MOSUNNY 73 35 25 SW23G35 29.75F ELIZABETH CITY SUNNY 67 36 31 S21G28 29.74F AHOSKIE* SUNNY 70 33 26 SW13G23 29.73F EDENTON* SUNNY 70 35 28 SW13 29.76F CURRITUCK* NOT AVBL KILL DEVIL HLS SUNNY 63 37 38 S10G17 29.77F MANTEO SUNNY 58 44 59 S20 29.79F CAPE HATTERAS SUNNY 64 43 46 SW15G24 29.84F TARBORO* FAIR 73 33 23 SW10G18 29.76F GOLDSBORO SUNNY 74 39 28 SW18G30 29.76F WASHINGTON SUNNY 72 33 24 SW16G26 29.78F GREENVILLE SUNNY 72 32 23 SW15G29 29.80F NEW BERN SUNNY 71 35 26 S16G23 29.83F WILMINGTON SUNNY 70 32 24 S16G22 29.87F $$ VAZ048-312200- ELSEWHERE CITY SKY/WX TMP DP RH WIND PRES REMARKS HARRISBURG PA PTSUNNY 46 34 62 NE12G18 29.66F BALTIMORE LGT RAIN 57 41 55 W13 29.61R ANNAPOLIS LGT RAIN 62 34 35 NW10G21 29.60R ANDREWS AFB DRIZZLE 66 34 30 W23G29 29.57S PHILADELPHIA LGT RAIN 54 33 45 VRB3 29.67R HENDERSON NC SUNNY 73 27 18 SW22G29 29.72F GREENSBORO MOSUNNY 74 27 17 W21G29 29.75F ROCKY MOUNT SUNNY 72 36 26 SW20G33 29.76F $$ VAZ100-312200- MARINE STATION/POSITION TIME TEMP WIND PRES WAVE SWELL AIR SEA DIR/SP/G HT/PER HT/PER (UTC) (F) (DEG/KT/KT) (MB) (FT/S) (FT/S) BRANDYWINE LGT 2000 51 41 180/ 8/ 16 1003.6F CAPE MAY NJ 2000 49 45 170/ 15/ 24 1003.2F LEWES DE 2000 61 42 180/ 6/ 9 1002.9F 15NM E FENWICK I 2050 46 41 1003.4F 5/ 5 OCEAN-CITY-INLET 2000 47 44 210/ 21/ 25 1004.6F WACHAPREAGUE VA 2000 55 51 200/ 19/ 22 1005.7F THOMAS POINT MD 2100 N/A COVE POINT MD 2000 67 220/ 23/ 30 1002.0F SOLOMONS ISLAND 2000 45 N/A BISHOPS HEAD MD 2018 180/ 23/ 27 N/A PINEY POINT MD 2006 240/ 19/ 23 N/A CAMBRIDGE MD 2000 65 43 180/ 11/ 22 1002.4F LEWISETTA VA 2000 67 48 1002.0F RAPPAHANNOCK LGT 2000 180/ 20/ 22 1005.4F STINGRAY PT 2100 62 46 220/ 21/ 27 N/A 2/ 3 YORK RVR RNG VA 2000 61 220/ 22/ 26 1004.4F YORKTOWN VA 2000 67 45 210/ 19/ 25 1004.8F DOMINION TERM VA 2000 61 220/ 17/ 20 1006.0F KIPTOPEKE VA 2000 52 170/ 15/ 18 N/A CHES BAY BRIDGE 2000 63 46 200/ 16/ 24 1005.6F CAPE HENRY VA 2000 67 180/ 15/ 29 1005.1F CHESAPEAKE LGHT 2000 50 170/ 31/ 32 1006.6F WILLOUBY STN VA 2000 66 210/ 24/ 27 1006.2F S CRANEY ISL VA 2000 190/ 18/ 25 1006.1F CAPE HENRY BUOY 2028 42 N/A 3/ 4 1ST LANDING BUOY 2100 62 220/ 17/ 25 1004.9F 2/ 3 OFFSHORE WE BUOY 2011 41 N/A 3/ 8 2/ 8 64NM E OF VA BCH 2050 55 48 190/ 19/ 23 1007.2F 3/ 9 2/ 9 DUCK PIER NC 2000 60 43 180/ 16/ 20 1007.8F 44056 DUCK FRF 2011 44 N/A 2/12 2/12 OREGON INLET NC 2000 57 49 180/ 17/ 19 1010.3F HATTERAS NC 2000 64 55 210/ 9/ 13 1011.6F CAPE LOOKOUT NC 2100 63 200/ 14/ 17 1010.9F $$

USA.gov is the U.S. government's official web portal to all federal, state and local government web resources and services.